GW3498 Weather Reports


Display with metric or nautical units.
time (UTC)temp
F
wind
direction
speed
MPH
gust
MPH
rain 1hr
in
rain 24hr
in
rain mn
in
humidity
%
barometer
mb
20260509162017 71 224 1.0 3.0 0.00 0.00 0.00 54 1014.5
20260509161034 70 185 1.0 4.0 0.00 0.00 0.00 55 1014.4
20260509160027 72 199 1.0 4.0 0.00 0.00 0.00 55 1014.4
20260509155021 72 206 1.0 4.0 0.00 0.00 0.00 53 1014.5
20260509154017 72 199 1.0 4.0 0.00 0.00 0.00 54 1014.6
20260509153031 73 201 1.0 2.0 0.00 0.00 0.00 52 1014.6
20260509152025 74 182 1.0 1.0 0.00 0.00 0.00 51 1014.5
20260509151020 74 223 1.0 2.0 0.00 0.00 0.00 52 1014.5
20260509150034 75 207 1.0 3.0 0.00 0.00 0.00 52 1014.6
20260509145049 75 261 1.0 3.0 0.00 0.00 0.00 51 1014.8
20260509144023 74 191 1.0 3.0 0.00 0.00 0.00 54 1015.0
20260509143019 74 205 1.0 2.0 0.00 0.00 0.00 52 1015.0
20260509142035 73 198 1.0 3.0 0.00 0.00 0.00 52 1015.2
20260509141030 73 224 2.0 4.0 0.00 0.00 0.00 52 1015.4
20260509140024 73 204 2.0 7.0 0.00 0.00 0.00 52 1015.6
20260509135018 74 217 1.0 3.0 0.00 0.00 0.00 55 1015.7
20260509134032 74 231 1.0 4.0 0.00 0.00 0.00 54 1015.8
20260509133027 73 187 2.0 7.0 0.00 0.00 0.00 53 1015.8
20260509132022 73 102 1.0 4.0 0.00 0.00 0.00 55 1016.0
20260509131018 74 218 1.0 2.0 0.00 0.00 0.00 58 1016.0
20260509130034 73 206 2.0 4.0 0.00 0.00 0.00 56 1016.0
20260509125026 73 174 2.0 7.0 0.00 0.00 0.00 56 1016.2
20260509124021 71 209 2.0 7.0 0.00 0.00 0.00 56 1016.1
20260509123036 73 243 2.0 6.0 0.00 0.01 0.00 56 1016.1
20260509122051 72 166 2.0 6.0 0.00 0.02 0.00 53 1016.1
20260509121026 72 173 2.0 4.0 0.00 0.06 0.00 53 1016.1
20260509120021 73 175 1.0 2.0 0.00 0.18 0.00 52 1016.1
20260509115036 72 221 3.0 6.0 0.00 0.21 0.00 52 1016.2
20260509114031 73 233 1.0 3.0 0.00 0.24 0.00 54 1016.1
20260509113025 73 182 1.0 4.0 0.00 0.28 0.00 54 1016.1
20260509112040 73 190 2.0 4.0 0.00 0.30 0.00 54 1016.2
20260509111037 72 154 1.0 3.0 0.00 0.30 0.00 55 1016.2
20260509110030 71 213 1.0 2.0 0.00 0.31 0.00 59 1016.4
20260509105103 71 179 2.0 6.0 0.00 0.36 0.00 59 1016.2
20260509104040 71 212 1.0 3.0 0.00 0.36 0.00 60 1016.2
20260509103033 71 211 1.0 2.0 0.00 0.36 0.00 58 1016.2
20260509102027 71 155 1.0 4.0 0.00 0.36 0.00 58 1016.1
20260509101021 71 187 1.0 3.0 0.00 0.36 0.00 58 1016.2
20260509100036 71 169 1.0 3.0 0.00 0.36 0.00 56 1016.1
20260509095030 71 193 1.0 3.0 0.00 0.36 0.00 57 1016.1
20260509094025 71 179 1.0 2.0 0.00 0.36 0.00 59 1016.1
20260509093019 70 201 1.0 2.0 0.00 0.36 0.00 60 1016.1
20260509092054 69 200 1.0 2.0 0.00 0.36 0.00 57 1016.1
20260509091028 69 195 1.0 3.0 0.00 0.36 0.00 61 1016.1
20260509090043 69 203 1.0 2.0 0.00 0.36 0.00 63 1016.0
20260509085037 69 182 1.0 2.0 0.00 0.36 0.00 66 1016.1
20260509084031 68 195 1.0 2.0 0.00 0.36 0.00 70 1016.1
20260509083025 67 178 1.0 3.0 0.00 0.36 0.00 71 1016.1
20260509082040 66 192 1.0 3.0 0.00 0.36 0.00 72 1016.1
20260509081035 66 194 1.0 2.0 0.00 0.36 0.00 72 1016.0
20260509080029 66 174 0.0 2.0 0.00 0.36 0.00 72 1016.1
20260509075044 64 180 0.0 1.0 0.00 0.36 0.00 76 1016.3
20260509074019 63 203 1.0 3.0 0.00 0.36 0.00 79 1016.2
20260509073033 62 202 1.0 2.0 0.00 0.36 0.00 81 1016.3
20260509072028 61 154 1.0 2.0 0.00 0.36 0.00 82 1016.3
20260509071023 61 205 0.0 1.0 0.00 0.36 0.00 83 1016.3
20260509070037 60 166 0.0 1.0 0.00 0.36 0.00 83 1016.5
20260509065055 60 198 0.0 1.0 0.00 0.36 0.00 85 1016.4
20260509064029 59 214 0.0 1.0 0.00 0.36 0.00 85 1016.4
20260509063023 59 207 0.0 1.0 0.00 0.36 0.00 85 1016.5
20260509062018 58 151 0.0 1.0 0.00 0.36 0.00 86 1016.4
20260509061033 57 191 0.0 1.0 0.00 0.36 0.00 89 1016.5
20260509060027 57 0.0 0.0 0.00 0.36 0.00 91 1016.6
20260509055022 56 0.0 0.0 0.00 0.36 0.00 92 1016.7
20260509054016 55 0.0 0.0 0.00 0.36 0.00 93 1016.6
20260509053031 55 0.0 0.0 0.00 0.36 0.00 94 1016.6
20260509052045 55 27 0.0 1.0 0.00 0.36 0.00 93 1016.7
20260509051020 55 351 0.0 1.0 0.00 0.36 0.00 92 1016.6
20260509050035 55 0.0 0.0 0.00 0.36 0.00 91 1016.3
20260509045028 55 0.0 0.0 0.00 0.36 0.00 91 1016.3
20260509044028 55 46 0.0 1.0 0.00 0.36 0.00 90 1016.2
20260509043017 55 40 0.0 1.0 0.00 0.36 0.00 91 1016.1
20260509042032 55 0.0 0.0 0.00 0.36 0.00 91 1016.1
20260509041027 54 0.0 0.0 0.00 0.36 0.00 92 1016.0
20260509040021 54 29 0.0 1.0 0.00 0.36 0.00 93 1015.9
20260509035036 54 0.0 0.0 0.00 0.36 0.00 92 1015.8
20260509034031 54 0.0 0.0 0.00 0.36 0.00 91 1015.8
20260509033026 55 22 0.0 1.0 0.00 0.36 0.00 90 1015.7
20260509032021 54 32 0.0 1.0 0.00 0.36 0.00 92 1015.5
20260509031035 54 20 1.0 1.0 0.00 0.36 0.00 93 1015.5
20260509030030 54 0.0 0.0 0.00 0.36 0.00 93 1015.6
20260509025024 54 0.0 0.0 0.00 0.36 0.00 92 1015.5
20260509024100 55 26 0.0 1.0 0.00 0.36 0.00 92 1015.5
20260509023034 55 13 0.0 1.0 0.00 0.36 0.00 91 1015.6
20260509022028 55 0.0 0.0 0.00 0.36 0.00 90 1015.6
20260509021024 56 0.0 0.0 0.00 0.36 0.00 88 1015.5
20260509020023 57 56 0.0 1.0 0.00 0.36 0.00 87 1015.6
20260509015054 57 17 0.0 1.0 0.00 0.36 0.00 88 1015.5
20260509014027 58 25 0.0 1.0 0.00 0.36 0.00 86 1015.6
20260509013021 57 28 0.0 1.0 0.00 0.36 0.00 88 1015.6
20260509012019 57 22 0.0 1.0 0.00 0.36 0.00 90 1015.5
20260509011031 57 0.0 0.0 0.00 0.36 0.00 90 1015.5
20260509010026 57 0.0 0.0 0.00 0.36 0.00 89 1015.3
20260509005021 56 26 1.0 1.0 0.00 0.36 0.00 89 1015.3
20260509004035 56 16 0.0 1.0 0.00 0.36 0.00 91 1015.1
20260509003050 55 25 0.0 1.0 0.00 0.36 0.00 91 1015.2
20260509002024 56 0.0 0.0 0.00 0.36 0.00 90 1015.3
20260509000033 56 0.0 0.0 0.00 0.36 0.00 90 1015.2
20260508235027 56 23 0.0 1.0 0.00 0.36 0.00 90 1015.0
20260508234022 56 9 1.0 1.0 0.00 0.36 0.00 92 1015.2
20260508233037 55 11 1.0 1.0 0.00 0.36 0.00 94 1015.3
20260508232031 55 358 1.0 2.0 0.00 0.36 0.00 95 1015.4
20260508231027 55 10 0.0 1.0 0.00 0.36 0.00 95 1015.3
20260508230041 55 11 1.0 2.0 0.00 0.36 0.00 95 1015.2
20260508225035 55 0.0 0.0 0.00 0.36 0.00 95 1015.3
20260508224031 55 0.0 0.0 0.00 0.36 0.00 95 1015.2
20260508223024 55 0.0 0.0 0.00 0.36 0.00 95 1015.1
20260508222019 56 0.0 0.0 0.00 0.36 0.00 95 1015.1
20260508221033 56 0.0 0.0 0.00 0.36 0.00 95 1015.1
20260508220028 55 0.0 0.0 0.00 0.36 0.36 96 1015.0
20260508215022 55 0.0 0.0 0.00 0.36 0.36 96 1015.0
20260508214017 55 0.0 0.0 0.00 0.36 0.36 96 1015.1
20260508213033 55 0.0 0.0 0.00 0.36 0.36 96 1015.0
20260508212048 56 0.0 0.0 0.00 0.36 0.36 96 1015.1
20260508211022 56 0.0 0.0 0.00 0.36 0.36 96 1015.0
20260508210037 56 0.0 0.0 0.00 0.36 0.36 96 1015.2
20260508205033 56 0.0 0.0 0.00 0.36 0.36 96 1015.0
20260508204027 56 0.0 0.0 0.00 0.36 0.36 97 1015.2
20260508203022 56 0.0 0.0 0.00 0.36 0.36 97 1015.1
20260508202017 57 85 0.0 1.0 0.00 0.36 0.36 98 1015.1
20260508201033 57 0.0 0.0 0.00 0.36 0.36 98 1015.1
20260508200027 57 95 0.0 1.0 0.00 0.36 0.36 98 1014.9
20260508195025 57 0.0 0.0 0.00 0.36 0.36 98 1014.7
20260508194018 57 0.0 0.0 0.00 0.36 0.36 98 1014.8
20260508193034 57 0.0 0.0 0.00 0.36 0.36 98 1014.6
20260508192028 57 180 0.0 1.0 0.00 0.36 0.36 98 1014.5
20260508191022 57 0.0 0.0 0.00 0.36 0.36 97 1014.4
20260508190017 57 0.0 0.0 0.00 0.36 0.36 97 1014.3
20260508185032 58 203 0.0 1.0 0.00 0.36 0.36 97 1014.1
20260508184027 58 354 0.0 1.0 0.00 0.36 0.36 97 1014.0
20260508183042 58 0.0 0.0 0.00 0.36 0.36 96 1013.9
20260508182017 58 191 1.0 1.0 0.00 0.36 0.36 96 1013.7
20260508181112 58 0.0 0.0 0.00 0.36 0.36 95 1013.6
20260508180046 58 0.0 0.0 0.00 0.36 0.36 95 1013.5
20260508175021 58 0.0 0.0 0.00 0.36 0.36 94 1013.2
20260508174020 59 206 0.0 1.0 0.00 0.36 0.36 93 1013.3
20260508173034 59 0.0 0.0 0.00 0.36 0.36 92 1013.3
20260508172027 59 0.0 0.0 0.00 0.36 0.36 92 1013.2
20260508171021 59 199 0.0 2.0 0.00 0.36 0.36 91 1013.2
20260508170056 60 173 0.0 1.0 0.00 0.36 0.36 90 1013.1
20260508165031 61 172 0.0 1.0 0.00 0.36 0.36 89 1013.0
20260508164025 61 0.0 0.0 0.00 0.36 0.36 85 1013.1
20260508163020 60 24 1.0 3.0 0.00 0.36 0.36 84 1013.0